sat.trackr.live / text

‹ back to catalog

ZHONGXING-10R

NORAD 63075 · 2025-036A

PAYLOAD ACTIVE UNKNOWN

§ Identity

Operator
Country
PRC
Launch date
2025-02-22
Launch site
XICLF
Launch vehicle
Mass (kg)
RCS (m²)

Purposes: comms

External: N2YO · Heavens-Above · Gunter

§ Orbital elements

Epoch: 2026-09-19T21:00:36.823680Z

Period
1,436.05 min
Inclination
0.0750°
Eccentricity
0.0004949
Mean motion
1.00275068 rev/d
Perigee alt
35,764.8 km
Apogee alt
35,806.5 km
Semi-major
42,163.8 km
B*
0.0000e+0
RAAN
252.3425°
Arg perigee
285.8955°
Mean anomaly
246.2140°
Rev number
590

§ Raw data

ZHONGXING-10R1 63075U 25036A   26262.87542620 -.00000357  00000+0  00000+0 0  99932 63075   0.0750 252.3425 0004949 285.8955 246.2140  1.00275068  5908

JSON: /api/v1/satellites/63075 · /tle

For live sub-satellite position, see the globe view (requires WebGL).

§ Visibility from observer

Set your observer location to see the next 7 days of passes ≥ 10°. The values pass through the URL so the page stays shareable.

No JS? Fill the form by hand. The geolocation button needs JavaScript.